Wind_Speed
19 18 17 18 17 16 13 10 7 6 6 3 3 3 4 5 5 5 5 6 7 7 6 7 7 7 6 7 8 8 9 9 11 12 14 15 16 16 17 18 19 19 19 18
18 18 18 17 16 15 12 8 7 6 3 3 2 3 3 3 4 5 5 5 5 5 6 6 7 7 6 6 7 8 9 10 11 12 13 15 16 16 17 17 18 19 19 18
18 18 17 15 14 12 11 7 5 3 3 2 2 2 1 1 2 4 5 5 5 5 5 6 7 7 7 7 7 8 9 10 11 12 13 14 15 16 16 17 17 18 18 18
18 18 17 15 13 11 9 6 5 4 3 3 2 2 1 2 3 4 6 6 6 5 6 7 7 7 7 7 8 8 9 9 10 11 13 14 14 15 15 16 16 17 17 17
17 15 13 12 11 9 7 5 4 2 2 1 1 1 2 3 4 6 7 8 7 6 6 7 7 7 7 8 8 8 9 9 10 11 12 14 14 14 15 15 16 16 17 16
16 14 12 10 8 7 6 4 3 1 1 2 2 2 2 4 6 7 8 9 8 7 7 7 7 7 8 8 8 8 9 9 9 10 12 13 13 13 14 14 15 15 16 15
15 14 12 10 8 6 5 4 2 1 1 1 2 3 3 5 6 8 10 10 9 9 8 8 8 8 8 9 8 8 9 9 9 10 11 11 12 13 13 13 14 14 15 14
14 13 11 9 7 5 4 3 2 2 2 2 2 3 4 6 8 10 10 10 9 9 9 9 9 9 9 10 9 9 9 9 8 9 10 10 11 12 12 13 13 13 14 14
12 11 9 8 6 5 3 2 1 1 2 3 4 5 6 8 10 11 11 11 10 10 10 10 10 10 10 10 10 10 10 9 9 9 9 9 10 11 12 12 12 12 12 13
8 7 6 6 4 3 1 1 1 2 3 4 6 7 9 12 13 13 13 12 11 11 10 11 11 11 11 11 11 11 10 10 9 9 9 9 9 10 11 11 11 11 11 11
6 5 4 3 2 1 0 2 3 4 5 6 7 8 12 14 15 15 14 14 12 12 12 12 12 12 12 12 12 12 11 11 10 9 9 8 9 9 9 9 10 10 10 10
4 3 2 0 1 2 3 4 5 6 7 8 9 9 14 16 16 16 15 15 14 14 14 14 13 13 13 13 13 13 12 12 11 10 10 9 9 8 8 8 8 9 9 9
4 3 2 2 3 4 6 7 7 8 8 10 11 11 15 16 17 17 16 16 15 15 15 14 14 14 14 14 14 14 14 13 13 12 11 10 9 8 8 7 7 8 8 8
5 5 5 5 5 6 7 8 9 9 10 11 12 12 14 16 17 17 17 17 16 16 16 16 15 15 16 16 16 15 15 15 14 14 13 12 11 9 8 7 7 7 7 7
7 7 7 7 7 8 8 9 10 11 11 12 12 13 14 15 16 16 17 17 17 17 17 17 17 17 17 17 17 17 17 17 16 16 15 14 13 11 10 9 8 7 7 7
8 8 8 8 9 9 10 11 12 12 12 13 13 14 15 16 17 17 18 18 18 18 18 18 19 18 18 18 19 19 18 18 18 18 17 17 15 14 12 11 10 9 8 7
10 9 9 9 11 11 12 13 14 15 15 15 15 15 16 17 17 18 18 19 19 19 19 19 20 20 20 20 20 20 20 20 20 20 20 19 18 17 15 14 12 11 10 9
12 12 12 12 13 13 15 16 17 17 17 16 16 17 18 19 20 20 20 21 21 21 20 20 21 22 22 22 22 22 22 22 22 22 22 22 21 20 18 16 15 14 13 11
15 15 15 15 16 16 17 18 20 20 19 18 18 19 20 21 22 22 23 24 23 23 23 23 23 24 24 24 24 24 24 23 23 24 24 24 24 23 21 20 18 17 16 14
18 19 19 20 21 20 20 21 22 24 23 21 21 22 23 24 25 26 26 26 27 27 26 26 26 27 27 27 26 26 26 26 25 26 26 26 26 25 24 23 22 20 19 17
21 22 23 24 25 25 25 24 25 27 26 26 26 26 27 27 28 29 29 29 29 29 29 29 29 29 30 30 30 29 28 28 28 29 28 28 28 28 27 26 25 24 22 21
24 25 26 27 28 28 29 29 29 29 30 29 29 30 31 31 32 33 33 33 33 33 33 32 32 32 32 33 33 32 32 31 31 31 31 30 30 30 30 29 28 27 26 24
26 27 29 30 31 32 32 33 33 33 34 34 34 34 35 36 36 37 37 37 37 37 37 37 36 35 36 36 36 36 35 35 35 34 33 33 33 33 32 32 31 30 29 28
29 31 32 34 35 36 36 37 37 38 38 39 39 39 40 41 41 41 41 41 41 41 41 41 41 40 39 39 40 40 39 39 38 37 36 36 35 35 35 34 34 33 32 30
32 34 35 37 38 39 40 40 41 42 43 44 44 45 45 46 47 47 46 45 45 45 45 45 45 44 43 43 43 43 43 42 41 40 39 39 38 37 37 37 36 35 34 33
35 38 39 39 40 42 42 43 45 46 47 48 49 50 50 51 51 51 51 51 50 49 48 48 47 47 47 47 46 46 47 46 45 44 43 42 41 40 40 39 39 38 37 36
Wind_Direction
164 168 170 174 177 182 189 191 194 194 202 212 215 239 248 259 275 285 296 302 302 303 291 288 291 293 302 312 315 318 323 328 333 337 340 342 344 345 345 345 347 350 350 348
150 157 161 163 171 175 175 177 172 176 173 197 218 237 254 270 280 289 305 311 309 303 292 288 290 294 302 311 315 316 323 328 333 335 338 341 344 346 347 347 348 350 352 352
144 150 153 158 163 163 166 159 146 154 160 190 205 221 255 286 315 326 326 327 324 314 304 295 290 292 301 311 316 316 320 325 330 333 337 341 344 346 347 348 349 352 354 356
139 144 147 152 152 149 144 142 143 154 165 173 187 194 353 18 3 340 332 332 332 326 314 301 293 292 300 308 311 312 315 320 327 331 337 341 344 346 347 349 351 353 356 357
128 137 143 143 139 141 143 145 149 156 161 164 229 263 354 25 15 351 340 335 330 327 317 306 299 297 300 302 305 308 311 318 325 331 337 341 345 347 348 350 351 353 356 359
120 125 128 132 135 139 142 148 144 134 243 267 296 317 345 9 8 358 346 337 330 325 316 306 300 296 296 296 297 301 306 313 322 330 337 343 347 349 350 351 352 354 357 360
115 118 121 124 130 142 154 158 147 182 216 269 296 313 336 356 358 349 340 334 329 325 319 308 300 294 293 294 295 297 301 308 317 326 335 343 347 349 351 352 352 355 358 1
116 118 122 123 124 134 142 156 179 215 219 262 289 309 328 338 336 333 332 329 327 324 316 308 301 297 295 294 293 292 296 302 310 320 329 338 345 349 350 351 353 355 359 2
120 122 125 126 131 136 147 166 195 245 262 275 285 305 319 319 319 323 326 326 324 321 313 304 300 298 296 292 290 289 291 295 302 313 322 332 342 348 351 352 354 357 0 4
106 114 119 119 122 137 165 228 263 273 280 274 283 296 305 304 308 316 320 321 319 316 311 305 299 296 292 289 287 287 288 289 292 302 311 321 334 342 348 353 356 358 1 5
93 102 113 125 128 112 284 294 295 295 292 286 282 291 293 296 305 312 316 315 311 306 306 305 298 292 289 286 284 283 282 281 284 291 298 308 322 332 341 348 355 358 0 4
68 77 92 173 280 282 291 301 303 301 300 296 294 289 288 293 302 306 309 309 304 300 301 301 298 291 287 285 282 279 276 275 277 281 286 295 307 319 329 338 347 353 358 0
27 14 346 311 305 303 306 307 304 304 297 294 294 293 291 298 304 305 306 306 303 300 298 297 296 291 287 283 281 277 273 271 271 274 277 282 292 303 315 324 333 343 351 355
6 353 340 323 312 310 310 309 307 307 303 301 300 296 294 299 305 308 308 307 304 300 296 294 292 289 285 282 279 277 272 268 267 269 270 273 279 287 296 307 317 328 338 344
5 358 349 336 326 324 323 314 308 308 307 304 305 303 305 307 308 308 307 307 304 299 295 291 289 285 281 280 279 276 271 267 265 265 265 266 270 274 279 286 295 306 316 325
357 353 344 332 327 324 316 313 311 311 312 313 313 314 314 314 313 311 309 307 303 299 294 290 289 284 279 277 277 276 272 267 264 263 262 262 263 266 268 272 278 286 294 301
338 336 330 321 319 315 309 312 313 313 314 315 314 313 313 313 311 308 306 304 302 299 295 291 289 286 282 277 274 273 271 268 264 262 261 260 260 260 262 264 267 272 277 282
329 327 323 317 314 309 312 312 311 310 313 314 314 312 309 307 306 305 302 300 298 297 295 291 287 285 283 279 275 272 271 268 266 263 260 258 257 257 257 259 261 264 267 271
322 320 319 315 311 309 310 312 312 312 315 315 311 308 305 304 303 302 302 300 297 294 292 289 286 284 281 279 275 273 270 268 266 264 260 258 256 256 255 256 257 259 261 263
314 313 312 312 310 311 311 311 311 310 313 313 308 304 301 300 299 300 299 298 296 294 292 289 286 284 281 278 276 273 270 267 265 263 261 259 257 256 255 254 255 256 257 258
309 310 311 310 309 310 311 311 309 308 310 309 307 304 302 300 298 296 294 292 292 290 288 286 285 283 281 278 276 273 270 267 264 262 261 260 257 255 254 254 254 254 255 256
305 307 307 306 306 307 309 309 307 305 305 305 304 302 300 299 297 296 294 292 290 288 286 284 282 280 279 277 275 273 269 266 263 261 260 258 257 255 254 253 253 253 254 254
302 302 302 302 303 304 305 304 304 303 302 302 301 300 299 298 297 296 295 293 290 288 285 283 280 277 276 275 273 271 269 265 262 260 258 256 255 254 253 252 252 252 253 253
299 299 299 299 301 301 301 301 302 301 300 300 299 299 298 297 296 295 294 292 289 287 284 282 279 276 274 272 271 270 267 265 262 259 257 255 253 253 252 251 251 251 251 252
296 295 296 297 298 298 299 299 299 298 298 298 298 297 296 296 294 293 292 291 288 286 284 281 279 276 273 270 268 267 266 264 262 259 256 254 253 252 251 250 250 250 250 251
294 294 294 295 295 295 297 296 296 296 296 296 296 296 295 294 293 292 291 290 287 285 283 281 279 276 273 271 268 265 264 263 261 258 256 254 252 251 250 249 249 249 249 249
Height
5810 5816 5821 5825 5829 5833 5836 5840 5842 5844 5845 5847 5848 5849 5849 5849 5849 5849 5849 5848 5848 5847 5846 5845 5845 5844 5843 5842 5841 5839 5838 5836 5834 5832 5829 5826 5823 5819 5816 5812 5808 5804 5800 5796
5813 5818 5822 5825 5829 5833 5836 5839 5841 5843 5844 5846 5846 5847 5848 5847 5847 5847 5846 5846 5846 5845 5844 5843 5842 5841 5841 5840 5839 5837 5836 5834 5832 5830 5827 5824 5821 5817 5814 5811 5807 5803 5799 5795
5815 5820 5823 5826 5830 5834 5837 5839 5841 5842 5843 5844 5845 5846 5846 5846 5845 5845 5844 5844 5844 5843 5842 5841 5840 5839 5839 5838 5837 5836 5834 5833 5831 5829 5826 5823 5819 5816 5813 5809 5806 5802 5798 5795
5817 5822 5825 5828 5831 5835 5837 5839 5841 5841 5842 5843 5844 5845 5845 5844 5844 5843 5842 5841 5841 5841 5840 5839 5838 5837 5836 5836 5835 5834 5833 5831 5829 5827 5824 5821 5818 5815 5812 5808 5805 5802 5798 5794
5822 5825 5828 5830 5833 5835 5837 5839 5840 5841 5842 5843 5843 5843 5844 5843 5842 5841 5840 5839 5839 5838 5838 5837 5836 5835 5834 5834 5833 5832 5831 5829 5828 5825 5823 5820 5817 5814 5811 5807 5804 5801 5798 5794
5825 5827 5830 5832 5834 5836 5837 5839 5840 5841 5842 5842 5842 5842 5842 5841 5840 5839 5838 5838 5837 5836 5836 5835 5834 5833 5833 5832 5831 5830 5829 5828 5826 5824 5821 5819 5816 5813 5810 5807 5804 5801 5797 5794
5827 5829 5831 5833 5835 5837 5838 5840 5841 5841 5841 5841 5841 5840 5841 5839 5839 5838 5837 5836 5835 5834 5833 5833 5832 5831 5831 5830 5829 5828 5827 5826 5824 5822 5820 5817 5815 5812 5809 5806 5803 5800 5797 5794
5828 5830 5832 5833 5835 5836 5838 5840 5841 5841 5840 5840 5839 5839 5839 5838 5837 5836 5835 5834 5833 5832 5832 5831 5830 5829 5828 5827 5826 5826 5825 5823 5822 5820 5818 5816 5814 5811 5808 5806 5803 5800 5797 5794
5831 5832 5833 5834 5835 5836 5837 5838 5839 5840 5839 5839 5838 5838 5837 5836 5835 5834 5833 5832 5831 5830 5829 5828 5827 5826 5825 5825 5824 5823 5822 5821 5820 5819 5817 5815 5813 5810 5808 5805 5802 5800 5797 5795
5833 5833 5834 5834 5835 5836 5837 5837 5837 5838 5837 5837 5836 5836 5836 5834 5833 5832 5831 5830 5829 5828 5827 5826 5825 5824 5823 5822 5821 5820 5819 5819 5818 5817 5815 5814 5812 5809 5807 5805 5802 5800 5797 5795
5833 5834 5835 5835 5835 5835 5836 5836 5835 5835 5835 5835 5835 5837 5833 5832 5830 5829 5828 5827 5826 5825 5824 5823 5822 5821 5820 5819 5818 5817 5817 5816 5815 5814 5813 5812 5810 5808 5806 5804 5802 5799 5797 5795
5834 5835 5835 5835 5835 5835 5835 5834 5834 5834 5833 5832 5832 5835 5830 5828 5827 5826 5825 5824 5823 5822 5821 5820 5819 5818 5817 5816 5815 5814 5814 5813 5812 5812 5811 5810 5808 5807 5805 5803 5801 5799 5797 5795
5834 5834 5834 5834 5836 5835 5833 5833 5832 5832 5831 5830 5829 5831 5826 5825 5824 5823 5822 5821 5819 5818 5817 5816 5815 5814 5813 5812 5812 5811 5811 5810 5809 5809 5808 5807 5806 5805 5803 5801 5800 5798 5796 5795
5833 5833 5834 5834 5833 5832 5831 5831 5830 5829 5828 5827 5826 5825 5824 5822 5821 5820 5818 5817 5815 5814 5813 5812 5811 5810 5810 5809 5808 5807 5807 5806 5806 5805 5805 5804 5803 5802 5801 5800 5798 5797 5795 5794
5833 5832 5831 5831 5830 5829 5829 5828 5827 5826 5825 5824 5823 5821 5820 5819 5818 5816 5815 5813 5812 5811 5809 5808 5807 5806 5805 5804 5804 5803 5802 5802 5802 5801 5801 5801 5800 5799 5798 5797 5796 5795 5794 5792
5832 5831 5830 5829 5828 5827 5826 5825 5824 5823 5822 5821 5819 5818 5816 5815 5814 5813 5811 5809 5808 5806 5805 5804 5803 5801 5800 5800 5799 5798 5798 5797 5797 5797 5797 5796 5796 5795 5795 5794 5793 5792 5792 5790
5830 5829 5828 5827 5825 5824 5823 5822 5820 5819 5818 5818 5816 5816 5813 5811 5810 5808 5807 5805 5803 5802 5800 5799 5798 5797 5795 5794 5794 5793 5792 5792 5792 5791 5791 5791 5791 5791 5791 5790 5790 5789 5788 5788
5827 5826 5825 5824 5823 5822 5822 5818 5816 5815 5815 5813 5812 5810 5809 5807 5806 5804 5802 5800 5798 5797 5795 5794 5792 5791 5790 5789 5788 5787 5787 5786 5786 5786 5786 5786 5786 5786 5786 5786 5785 5785 5785 5784
5823 5822 5821 5820 5819 5818 5816 5814 5811 5810 5810 5809 5807 5806 5803 5801 5800 5798 5796 5794 5792 5790 5789 5787 5786 5785 5783 5782 5781 5781 5780 5780 5780 5779 5779 5779 5779 5780 5780 5780 5780 5780 5780 5780
5818 5817 5817 5814 5813 5812 5812 5809 5806 5805 5804 5803 5801 5800 5798 5795 5794 5792 5790 5787 5785 5783 5782 5780 5779 5777 5776 5775 5774 5774 5773 5773 5772 5772 5772 5772 5773 5773 5774 5774 5774 5774 5775 5775
5813 5811 5810 5808 5805 5804 5804 5803 5801 5799 5799 5796 5794 5792 5790 5788 5786 5784 5782 5779 5777 5775 5774 5772 5770 5769 5767 5766 5766 5766 5765 5765 5764 5764 5764 5764 5765 5765 5766 5767 5767 5768 5768 5769
5806 5805 5803 5800 5798 5799 5796 5794 5793 5792 5789 5787 5785 5783 5781 5779 5776 5774 5772 5770 5768 5766 5764 5762 5761 5760 5758 5756 5756 5756 5756 5755 5755 5755 5756 5756 5756 5757 5757 5758 5759 5760 5761 5762
5799 5798 5795 5794 5793 5790 5788 5786 5784 5782 5779 5777 5775 5773 5771 5768 5766 5763 5761 5759 5757 5755 5753 5751 5750 5749 5747 5746 5745 5744 5744 5744 5745 5745 5746 5746 5747 5747 5748 5749 5750 5752 5753 5754
5791 5789 5786 5784 5782 5780 5778 5776 5774 5771 5769 5766 5764 5761 5759 5756 5754 5751 5749 5747 5744 5742 5740 5738 5737 5736 5735 5733 5732 5732 5732 5732 5733 5734 5735 5735 5736 5737 5738 5739 5740 5742 5743 5745
5782 5779 5776 5774 5772 5769 5767 5765 5762 5759 5757 5754 5751 5749 5746 5743 5740 5737 5735 5733 5730 5728 5726 5724 5723 5722 5721 5720 5719 5718 5718 5718 5719 5721 5722 5723 5724 5725 5727 5728 5730 5731 5733 5735
5772 5769 5766 5765 5762 5758 5757 5753 5750 5747 5744 5741 5738 5734 5731 5727 5724 5721 5718 5716 5714 5712 5710 5708 5707 5706 5705 5704 5704 5703 5703 5703 5705 5706 5708 5709 5711 5713 5714 5716 5718 5719 5722 5723